星链-36235(STARLINK-36235)

导读

STARLINK-36235(NORAD编号68400)是SpaceX星链(Starlink)星座中的一颗低轨通信卫星,属于Starlink第二代卫星组网序列,运行在近地轨道区域,为全球用户提供卫星互联网接入服务。 作为星链大规模组网中的一员,它依托Ku/Ka频段传输信号,支持宽带互联服务,适配偏远地区、移动场景等特殊联网需求。当前SpaceX正推进星链轨道优化,2026年计划将数千颗星链卫星轨道高度从550公里降至480公里,该卫星也将纳入此次调整,以降低碰撞风险、提升太空运行安全性。

Basic Information
目录编号:
68400
目录名称:
STARLINK-36235
国际标识:
2026-063W
轨道中心:
EARTH
卫星名称:
星链-36235
卫星全名:
星链-36235(STARLINK-36235)
卫星状态:
在轨 (已飞行169 天)
发射日期:
2026-03-26 UTC
国别 :
美国 (US)
星等 :
--
This satellite is enrolled in the Space Conjunction Data Service (SCDS) and the current flight risk assessment level is: No High Risk
Orbit Information
数据来源 国际轨道数据
星历时间: 2026-09-11T15:45:12+0800
8小时前
查看轨道信息
半长轴: 6843.666km
偏心率: 0.0003224
轨道倾角: 97.288°
近地点辐角 122.878°
升交点赤经 35.338°
平近点角 237.278°
近地点: 463.322km
远地点: 467.736km
周期: 93.906分钟
每日圈数: 15.3345
Detailed Information
固有亮度:
5
最大亮度:
2.5
卫星平台:
Starlink V1.0
覆盖范围:
全球
运营商:
太空探索技术公司
运营商所在国:
美国
制造商(研发单位):
太空探索技术公司
制造商所在国:
美国
使用方式:
暂无
Satellite Introduction
Starlink 计划是 SpaceX 推出的全球卫星互联网项目,通过发射低轨道卫星,为全球尤其是偏远地区提供高速、低延迟的互联网服务。自 2019 年起,Starlink 已部署数千颗卫星,旨在缩小全球数字鸿沟,推动互联网普及。该项目还为军事、航空等行业提供通信支持,带来广泛经济效益。
2D Orbit Map
3D Orbit Map
Orbit Altitude Analysis Chart
Orbit Inclination Analysis Chart
Orbit Comprehensive Analysis Chart
View Comprehensive Chart
Conjunction Data List
Event ID Objects TCA Miss Dist (km) Collision Risk Probability Collision Risk Index (CRI) Action
CDM_260913-180405-674806-840021
OBJECT F (56748)
2026-09-13T
18:04:14+0000
0.648 km
远距离
6.759968E-5 中风险 0.72
CDM_260912-070205-381906-840021
2026-09-12T
07:02:40+0000
1.879 km
极远距离
3.243088E-6 低风险 0.45
CDM_260914-043205-407506-840021
2026-09-14T
04:32:13+0000
1.944 km
极远距离
3.049285E-6 低风险 0.45
CDM_260913-094305-171706-840021
2026-09-13T
09:43:21+0000
2.294 km
极远距离
2.046918E-6 低风险 0.41
CDM_260913-015005-397906-840021
2026-09-13T
01:50:27+0000
2.110 km
极远距离
1.781023E-6 低风险 0.4
Miss Distance Evolution Trend with All Objects
Collision Probability Evolution Trend with All Objects